TimeEST,TemperatureF,Dew PointF,Humidity,Sea Level PressureIn,VisibilityMPH,Wind Direction,Wind SpeedMPH,Gust SpeedMPH,PrecipitationIn,Events,Conditions,WindDirDegrees,DateUTC
12:15 AM,40.6,40.6,100,29.91,0.2,Calm,Calm,-,N/A,Fog,Fog,0,2013-02-24 05:15:00
12:35 AM,41.0,41.0,100,29.91,0.2,Calm,Calm,-,N/A,Fog,Fog,0,2013-02-24 05:35:00
12:55 AM,40.1,40.1,100,29.92,0.2,Calm,Calm,-,N/A,Fog,Fog,0,2013-02-24 05:55:00
1:15 AM,40.1,40.1,100,29.93,0.2,Calm,Calm,-,N/A,Fog,Fog,0,2013-02-24 06:15:00
1:35 AM,40.6,40.6,100,29.91,0.2,Calm,Calm,-,N/A,Fog,Fog,0,2013-02-24 06:35:00
1:55 AM,40.6,40.6,100,29.91,0.2,Calm,Calm,-,N/A,Fog,Fog,0,2013-02-24 06:55:00
2:15 AM,40.5,40.5,100,29.92,0.2,Calm,Calm,-,N/A,Fog,Fog,0,2013-02-24 07:15:00
2:35 AM,40.1,40.1,100,29.92,0.2,Calm,Calm,-,N/A,Fog,Fog,0,2013-02-24 07:35:00
2:55 AM,40.1,40.1,100,29.92,0.2,Calm,Calm,-,N/A,Fog,Fog,0,2013-02-24 07:55:00
3:15 AM,40.1,40.1,100,29.92,0.8,Calm,Calm,-,N/A,,Overcast,0,2013-02-24 08:15:00
3:35 AM,39.7,39.7,100,29.92,7.0,Calm,Calm,-,N/A,,Overcast,0,2013-02-24 08:35:00
3:55 AM,39.6,39.6,100,29.92,7.0,Calm,Calm,-,N/A,,Overcast,0,2013-02-24 08:55:00
4:15 AM,39.2,39.2,100,29.93,1.5,Calm,Calm,-,N/A,,Overcast,0,2013-02-24 09:15:00
4:35 AM,39.0,39.0,100,29.93,0.5,NNW,4.6,-,N/A,Fog,Fog,340,2013-02-24 09:35:00
4:55 AM,39.4,39.4,100,29.93,1.0,Calm,Calm,-,N/A,,Overcast,0,2013-02-24 09:55:00
5:15 AM,39.4,39.4,100,29.94,0.5,Calm,Calm,-,N/A,Fog,Fog,0,2013-02-24 10:15:00
5:35 AM,39.2,39.2,100,29.94,0.2,Calm,Calm,-,N/A,Fog,Fog,0,2013-02-24 10:35:00
5:55 AM,38.7,38.7,100,29.95,0.5,ESE,3.5,-,N/A,Fog,Fog,120,2013-02-24 10:55:00
6:15 AM,38.3,38.3,100,29.96,0.5,Calm,Calm,-,N/A,Fog,Fog,0,2013-02-24 11:15:00
6:35 AM,38.5,38.5,100,29.97,0.5,Calm,Calm,-,N/A,Fog,Fog,0,2013-02-24 11:35:00
6:55 AM,37.8,37.8,100,29.97,0.5,Calm,Calm,-,N/A,Fog,Fog,0,2013-02-24 11:55:00
7:15 AM,37.8,37.8,100,29.98,0.8,Calm,Calm,-,N/A,,Overcast,0,2013-02-24 12:15:00
7:35 AM,37.8,37.8,100,29.99,0.8,Calm,Calm,-,N/A,,Overcast,0,2013-02-24 12:35:00
7:55 AM,37.4,37.4,100,29.99,1.0,Calm,Calm,-,N/A,,Overcast,0,2013-02-24 12:55:00
8:15 AM,36.9,36.9,100,30.00,7.0,Calm,Calm,-,N/A,,Overcast,0,2013-02-24 13:15:00
8:35 AM,37.6,37.4,99,30.01,7.0,Calm,Calm,-,N/A,,Overcast,0,2013-02-24 13:35:00
8:55 AM,37.6,37.2,99,30.02,7.0,Calm,Calm,-,N/A,,Overcast,0,2013-02-24 13:55:00
9:15 AM,37.9,37.6,99,30.02,7.0,Calm,Calm,-,N/A,,Mostly Cloudy,0,2013-02-24 14:15:00
9:35 AM,39.4,38.5,97,30.01,7.0,Calm,Calm,-,N/A,,Mostly Cloudy,0,2013-02-24 14:35:00
9:55 AM,40.1,38.1,93,30.01,10.0,Calm,Calm,-,N/A,,Scattered Clouds,0,2013-02-24 14:55:00
10:15 AM,41.5,36.9,83,30.00,10.0,Calm,Calm,-,N/A,,Clear,0,2013-02-24 15:15:00
10:35 AM,44.2,36.1,73,30.00,10.0,Calm,Calm,-,N/A,,Clear,0,2013-02-24 15:35:00
10:55 AM,46.8,33.8,61,30.01,10.0,Calm,Calm,-,N/A,,Clear,0,2013-02-24 15:55:00
11:15 AM,48.9,32.2,52,30.01,10.0,Calm,Calm,-,N/A,,Clear,0,2013-02-24 16:15:00
11:35 AM,51.6,31.1,45,30.01,10.0,Calm,Calm,-,N/A,,Clear,0,2013-02-24 16:35:00
11:55 AM,52.9,30.7,43,30.00,10.0,West,3.5,-,N/A,,Clear,270,2013-02-24 16:55:00
12:15 PM,54.1,30.9,41,29.99,10.0,WSW,3.5,-,N/A,,Clear,250,2013-02-24 17:15:00
12:35 PM,55.6,31.6,40,29.99,10.0,Calm,Calm,-,N/A,,Clear,0,2013-02-24 17:35:00
12:55 PM,56.3,32.4,40,29.98,10.0,West,4.6,-,N/A,,Clear,270,2013-02-24 17:55:00
1:15 PM,58.1,33.1,39,29.98,10.0,East,6.9,-,N/A,,Clear,100,2013-02-24 18:15:00
1:35 PM,57.7,30.0,35,29.97,10.0,Calm,Calm,-,N/A,,Clear,0,2013-02-24 18:35:00
1:55 PM,58.6,30.9,35,29.97,10.0,East,8.1,-,N/A,,Clear,80,2013-02-24 18:55:00
2:15 PM,58.6,27.1,30,29.96,10.0,NE,4.6,-,N/A,,Clear,50,2013-02-24 19:15:00
2:35 PM,58.3,23.7,26,29.96,10.0,ENE,10.4,19.6,N/A,,Clear,60,2013-02-24 19:35:00
2:55 PM,58.3,23.2,26,29.96,10.0,NE,8.1,17.3,N/A,,Clear,50,2013-02-24 19:55:00
3:15 PM,58.5,25.0,28,29.97,10.0,NE,11.5,16.1,N/A,,Clear,50,2013-02-24 20:15:00
3:35 PM,58.1,24.1,27,29.97,10.0,NNE,10.4,17.3,N/A,,Clear,30,2013-02-24 20:35:00
3:55 PM,57.4,21.0,24,29.96,10.0,NE,10.4,18.4,N/A,,Clear,40,2013-02-24 20:55:00
4:15 PM,57.7,23.0,26,29.97,10.0,NNE,6.9,-,N/A,,Clear,20,2013-02-24 21:15:00
4:35 PM,57.4,22.1,26,29.96,10.0,NE,4.6,-,N/A,,Clear,40,2013-02-24 21:35:00
4:55 PM,56.5,21.2,25,29.96,10.0,NE,5.8,-,N/A,,Clear,40,2013-02-24 21:55:00
5:15 PM,56.3,20.3,25,29.97,10.0,NNE,4.6,-,N/A,,Clear,20,2013-02-24 22:15:00
5:35 PM,55.2,20.3,26,29.97,10.0,North,3.5,-,N/A,,Clear,350,2013-02-24 22:35:00
5:55 PM,53.1,22.1,30,29.98,10.0,NNE,6.9,-,N/A,,Clear,20,2013-02-24 22:55:00
6:15 PM,49.6,23.5,36,29.98,10.0,ENE,3.5,-,N/A,,Clear,60,2013-02-24 23:15:00
6:35 PM,46.2,25.0,43,29.99,10.0,Calm,Calm,-,N/A,,Clear,0,2013-02-24 23:35:00
6:55 PM,41.4,28.4,60,30.00,10.0,NE,4.6,-,N/A,,Clear,50,2013-02-24 23:55:00
7:15 PM,40.1,28.2,63,30.01,10.0,NNE,3.5,-,N/A,,Clear,30,2013-02-25 00:15:00
7:35 PM,39.6,28.8,65,30.01,10.0,Calm,Calm,-,N/A,,Clear,0,2013-02-25 00:35:00
7:55 PM,38.1,29.1,70,30.02,10.0,Calm,Calm,-,N/A,,Clear,0,2013-02-25 00:55:00
8:15 PM,37.0,28.9,73,30.02,10.0,NE,4.6,-,N/A,,Clear,40,2013-02-25 01:15:00
8:35 PM,36.9,28.4,71,30.03,10.0,NNE,3.5,-,N/A,,Clear,30,2013-02-25 01:35:00
8:55 PM,35.1,29.1,79,30.02,10.0,Calm,Calm,-,N/A,,Clear,0,2013-02-25 01:55:00
9:15 PM,35.8,28.4,75,30.03,10.0,Calm,Calm,-,N/A,,Clear,0,2013-02-25 02:15:00
9:35 PM,33.3,29.1,85,30.03,10.0,Calm,Calm,-,N/A,,Clear,0,2013-02-25 02:35:00
9:55 PM,33.6,28.8,82,30.03,10.0,SE,3.5,-,N/A,,Clear,130,2013-02-25 02:55:00
10:15 PM,34.7,28.4,78,30.03,10.0,Calm,Calm,-,N/A,,Clear,0,2013-02-25 03:15:00
10:35 PM,33.3,28.0,81,30.03,10.0,Calm,Calm,-,N/A,,Clear,0,2013-02-25 03:35:00
10:55 PM,31.5,27.5,85,30.02,10.0,Calm,Calm,-,N/A,,Clear,0,2013-02-25 03:55:00
11:15 PM,32.0,28.2,86,30.01,10.0,Calm,Calm,-,N/A,,Clear,0,2013-02-25 04:15:00
11:35 PM,31.1,27.3,86,30.01,10.0,Calm,Calm,-,N/A,,Clear,0,2013-02-25 04:35:00
11:55 PM,31.1,27.1,85,30.01,10.0,Calm,Calm,-,N/A,,Clear,0,2013-02-25 04:55:00